Regional Weather Roundup
Issued by NWS Sioux Falls, SD

Home | Current Version | Previous Version | Text Only | Print | Product List | Glossary Off
Versions: 1 2 3 4 5 6 7 8 9 10 11 12 13 14 15 16 17 18 19 20 21 22 23 24 25 26 27 28 29 30 31 32 33 34 35 36 37 38 39 40 41 42 43 44 45 46 47 48 49 50

000
ASUS43 KFSD 180210
RWRFSD

WEATHER ROUNDUP FOR SE SOUTH DAKOTA/SW MINNESOTA/NW IOWA
NATIONAL WEATHER SERVICE SIOUX FALLS SD
900 PM CDT WED SEP 17 2014

NOTE: "FAIR" INDICATES FEW OR NO CLOUDS BELOW 12,000 FEET WITH NO
SIGNIFICANT WEATHER AND OR OBSTRUCTIONS TO VISIBILITY.


SDZ038>040-050-052>070-180300-
SOUTHEAST SOUTH DAKOTA

CITY           SKY/WX    TMP DP  RH WIND       PRES   REMARKS
CHAMBERLAIN    MOCLDY    65  55  71 NE3       29.96R
HURON          MOCLDY    65  53  65 E7        29.96R
MADISON        FAIR      57  57 100 NE6       29.98R
MITCHELL       PTCLDY    62  54  74 E5        29.95R
SIOUX FALLS    PTCLDY    63  56  78 NE3       29.97R
WINNER         LGT RAIN  68  57  68 E9        29.96R
YANKTON        CLEAR     64  55  72 N6        29.95R
$$

MNZ071-072-080-081-089-090-097-098-180300-
SOUTHWEST MINNESOTA

CITY           SKY/WX    TMP DP  RH WIND       PRES   REMARKS
FAIRMONT       PTCLDY    63  52  67 E6        29.98R
JACKSON        CLEAR     61  54  77 NE5       29.99R
LUVERNE        MOCLDY    64  55  72 NE5       29.98R
MARSHALL       CLEAR     64  52  63 E3        29.97R
MONTEVIDEO     CLEAR     63  55  77 CALM      29.99R
PIPESTONE      CLEAR     63  55  77 CALM      29.99R
REDWOOD FALLS  CLEAR     65  55  70 E3        29.97R
TRACY          CLEAR     62  56  82 CALM      29.99R
WINDOM         CLEAR     61  54  77 CALM      29.99R
WORTHINGTON    PTCLDY    63  55  77 NE6       29.99R
$$

IAZ001>003-012>014-020>022-031-032-NEZ013-014-SDZ071-180300-
NORTHWEST IOWA

CITY           SKY/WX    TMP DP  RH WIND       PRES   REMARKS
CHEROKEE       CLEAR     62  57  83 CALM      29.96R
DENISON        CLEAR     61  59  94 E3        29.94R
ESTHERVILLE    PTCLDY    60  55  83 NE7       29.97
LE MARS        CLEAR     68  59  73 SE6       29.95R
ORANGE CITY    CLEAR     64  55  72 CALM      29.96R
SHELDON        MOCLDY    61  57  88 E6        29.96R
SIOUX CITY     CLEAR     68  59  73 E6        29.94R
SPENCER        PTCLDY    60  56  86 E5        29.97R
STORM LAKE     CLEAR     59  55  88 SE6       29.97R
$$

ABBREVIATIONS USED IN REMARKS
   TC - TEMPERATURE IN CELSIUS
  WCI - WIND CHILL INDEX
   HX - HEAT INDEX
  VSB - VISIBILITY



USA.gov is the U.S. government's official web portal to all federal, state and local government web resources and services.